Wind_Speed
20 21 22 23 24 24 25 25 25 26 26 26 26 26 26 26 26 26 25 25 25 25 25 25 25 25 25 24 24 24 24 24 24 24 24 24 24 24 24 24 24 24 24 24 24 22 21 20 20 19 19 20 20 20 20 20 19 19 19 18 18 19 22 25 28 28 27 27 27 28 28 29 30 29 28 29 30 31 32 32 33 33 33 32 31 30 30 32
20 21 22 23 23 23 23 23 23 24 24 24 24 24 24 24 25 25 25 25 25 25 25 25 25 25 25 25 24 24 24 24 24 24 24 24 24 24 24 24 25 25 25 24 24 23 22 21 21 21 21 21 20 20 20 19 18 18 18 17 18 21 25 27 28 28 27 27 27 27 27 27 28 28 28 28 29 30 30 31 31 31 30 30 30 30 31 31
21 21 22 22 22 21 21 21 21 21 22 22 22 22 22 23 23 24 24 24 24 24 24 24 24 25 25 25 24 24 24 24 24 25 24 24 25 24 25 25 25 25 25 25 24 24 23 22 22 22 22 22 22 21 21 20 19 18 17 18 21 25 27 27 27 28 27 27 26 26 26 27 28 27 27 27 27 29 29 29 29 30 30 30 30 31 32 29
20 21 21 20 20 19 19 19 19 19 19 20 19 20 20 21 21 21 21 21 22 22 22 22 23 23 24 24 24 24 24 24 24 24 24 24 25 25 25 25 25 25 25 25 25 24 24 23 23 23 23 23 23 22 22 21 20 19 17 19 24 26 27 27 28 28 28 27 27 27 26 26 27 27 27 27 28 29 29 30 31 31 32 31 30 31 31 27
20 19 19 18 17 17 17 16 16 17 17 17 17 18 18 18 19 19 19 19 19 20 20 20 21 22 23 23 23 23 23 24 23 23 24 24 24 24 24 24 24 24 24 24 24 24 24 24 24 24 25 25 24 24 24 23 22 20 19 21 24 25 26 27 28 28 28 28 27 26 26 25 26 27 28 28 29 29 31 33 33 33 33 32 31 30 29 26
18 17 16 16 15 14 14 14 14 14 15 15 15 15 16 16 16 16 17 17 17 17 17 18 19 20 20 20 21 21 22 22 22 22 23 23 23 22 22 23 23 23 23 24 24 24 25 25 25 26 26 26 26 26 26 25 23 21 21 23 24 24 25 27 27 27 27 27 26 26 26 26 26 27 28 29 31 32 33 33 33 33 33 32 31 29 28 26
16 15 14 13 13 12 12 12 12 12 12 12 13 13 14 14 14 14 15 15 15 15 16 16 17 17 16 17 18 19 20 20 20 20 20 20 20 21 22 22 21 22 22 23 24 24 25 26 27 27 27 28 27 27 27 26 24 23 23 24 25 25 26 27 27 26 26 26 25 25 25 25 26 28 29 30 32 33 33 33 33 33 32 31 30 29 28 27
14 13 12 12 11 10 10 11 11 11 11 11 11 12 12 12 12 12 13 13 13 14 15 15 15 14 14 15 15 16 16 17 17 17 17 17 18 19 20 21 21 21 21 22 23 24 25 26 26 26 27 27 27 28 28 27 25 24 25 26 25 26 27 27 27 26 26 26 25 24 25 26 27 28 29 31 33 33 34 33 33 32 32 32 31 30 29 28
12 12 11 11 10 9 9 9 9 9 9 9 10 10 11 11 11 11 12 12 12 13 14 14 13 12 13 13 13 14 14 14 14 15 15 15 15 17 18 19 19 20 20 21 22 23 23 23 23 23 24 24 25 26 25 25 24 25 26 26 25 26 26 26 26 27 27 27 25 24 25 26 26 27 29 32 33 33 33 33 33 33 33 33 32 30 29 28
12 11 11 11 10 9 9 9 9 8 8 8 8 9 9 10 10 11 11 11 12 12 13 13 12 12 12 13 13 14 13 13 13 13 13 13 13 14 15 16 17 18 19 19 19 19 19 19 18 19 20 21 22 22 21 21 23 24 26 26 25 25 26 26 27 27 28 28 27 26 26 27 27 28 30 32 32 32 33 34 33 33 32 31 30 29 27 26
12 11 11 11 11 10 9 9 9 8 8 8 8 8 8 9 10 11 11 11 12 12 13 13 12 12 13 13 14 13 13 13 13 13 13 12 11 12 13 14 15 16 16 16 16 16 16 15 16 17 17 17 18 17 17 19 21 23 24 24 24 25 26 27 27 28 29 30 29 28 28 29 28 27 29 29 30 31 32 33 31 29 29 29 28 25 22 22
12 11 11 11 11 11 10 10 9 9 8 8 8 7 7 8 9 10 11 12 12 13 14 13 12 12 13 13 14 13 13 13 12 13 12 11 11 11 12 12 13 14 15 16 16 16 16 15 16 16 15 16 16 16 16 18 20 22 21 21 23 24 26 27 28 28 29 30 30 29 29 30 28 28 29 29 30 30 30 29 28 27 27 26 24 21 19 20
12 12 12 12 11 11 11 10 10 9 9 9 8 8 8 7 8 9 10 12 13 14 15 14 12 12 12 13 13 13 13 13 13 13 12 11 11 11 11 10 11 12 14 15 16 16 15 15 16 16 16 17 16 15 16 18 20 20 18 18 20 22 24 26 27 28 29 31 31 29 30 30 30 31 32 31 31 31 29 28 27 28 27 25 23 21 20 21
13 13 12 12 12 12 11 11 11 10 10 10 10 9 9 8 8 9 10 11 12 14 15 14 13 13 13 13 13 13 14 14 13 13 13 12 11 10 10 9 9 10 12 13 13 13 14 15 16 17 18 18 17 16 17 18 18 17 15 15 16 18 22 25 26 29 31 33 33 32 32 31 31 33 33 33 32 31 29 28 28 28 27 25 24 23 22 21
14 14 13 13 13 12 12 12 11 11 11 12 11 11 10 9 9 10 10 10 11 13 14 14 14 13 13 13 14 14 14 14 13 13 12 12 11 11 10 9 9 9 10 11 11 11 12 14 15 17 18 18 17 17 17 16 16 15 13 14 14 15 19 23 26 30 33 36 35 34 34 31 31 34 34 32 31 30 28 26 25 24 24 25 24 23 22 22
15 15 15 14 14 13 13 12 12 12 13 13 13 13 12 11 10 10 10 11 11 12 12 13 13 14 14 14 14 15 14 14 13 13 13 13 12 12 11 10 10 9 10 10 9 10 11 12 13 15 16 16 16 16 15 14 12 12 11 13 14 15 18 21 25 30 33 35 36 34 33 30 30 34 34 31 30 29 26 24 23 22 22 23 24 24 23 23
16 16 16 15 15 14 14 14 14 14 14 14 14 14 14 13 12 11 10 11 12 12 12 12 12 13 15 15 15 15 15 14 14 13 13 14 14 13 13 12 11 11 11 11 10 10 11 11 12 13 14 14 14 14 13 11 11 11 11 13 14 16 19 20 23 26 29 32 34 34 32 30 31 35 34 30 28 28 26 24 23 23 23 24 25 24 24 24
16 16 17 16 16 16 15 15 15 15 15 15 15 15 15 14 13 12 12 11 12 12 12 12 12 13 14 15 15 15 15 15 14 14 14 15 15 15 15 14 13 13 13 13 13 13 12 12 12 12 13 14 13 13 12 12 13 14 14 15 16 17 18 20 21 23 25 27 29 31 30 29 32 34 32 28 27 27 27 26 25 25 25 25 25 25 24 24
16 17 17 17 17 17 17 16 16 16 16 16 16 16 16 15 14 13 13 13 13 12 12 12 12 13 14 15 15 16 16 16 16 15 15 15 16 17 16 16 15 15 16 16 16 15 13 13 13 14 15 16 15 15 15 15 16 17 17 18 19 19 20 21 21 21 22 23 24 26 27 28 30 31 30 27 27 27 27 27 27 26 26 26 25 24 24 23
16 17 18 18 18 18 18 18 18 18 18 17 17 17 17 16 15 14 14 14 14 13 12 12 12 14 15 15 15 15 16 16 16 16 16 16 17 18 18 18 18 18 19 20 19 17 16 15 16 18 20 20 18 17 18 18 19 19 19 20 21 22 22 23 23 23 22 22 22 23 24 26 28 28 28 27 26 27 27 28 27 26 25 24 23 23 23 22
16 17 18 19 19 20 20 19 19 19 19 19 18 18 18 18 16 15 15 15 15 14 13 13 13 14 15 16 15 15 15 15 15 15 16 16 17 18 19 20 20 21 22 22 21 20 18 18 20 23 23 21 20 20 20 21 21 21 22 22 22 22 23 24 25 25 24 24 24 23 23 24 25 27 28 27 27 28 27 28 27 26 25 23 21 21 21 20
17 18 19 19 20 20 21 21 20 20 20 20 20 20 20 19 18 18 17 17 16 15 15 14 14 15 15 15 15 16 16 16 16 15 15 16 16 17 18 19 21 22 22 22 22 22 21 22 25 25 24 23 23 22 23 23 24 23 23 23 23 23 24 24 26 27 26 25 25 24 24 25 25 27 27 27 28 29 28 28 27 26 24 21 19 20 21 21
18 18 19 20 21 21 21 22 21 21 22 22 21 21 21 21 20 20 19 19 18 17 16 15 15 16 16 15 15 15 16 16 16 16 16 17 17 17 18 19 20 21 22 23 23 22 23 25 27 26 26 26 25 25 25 25 25 24 24 23 23 25 26 26 27 28 27 26 25 25 25 25 25 26 26 27 28 29 29 28 27 26 24 22 21 21 22 21
18 19 20 21 21 22 22 22 22 22 22 22 22 22 21 21 21 21 20 20 19 18 18 17 16 17 16 16 15 15 15 15 15 16 16 16 16 17 18 19 20 21 23 23 22 21 22 25 26 26 26 26 26 26 25 25 25 25 25 25 25 27 29 29 28 28 27 27 26 25 25 26 26 26 26 27 28 29 30 30 28 26 24 23 23 23 23 22
19 20 20 21 22 22 22 22 22 22 21 21 21 21 21 20 20 19 19 19 19 19 18 18 18 17 17 17 16 16 16 16 16 15 16 16 16 17 18 18 19 22 23 23 21 21 23 25 25 25 26 26 26 25 24 24 25 26 26 27 28 29 30 30 29 29 28 27 27 27 27 27 26 26 27 27 28 29 30 31 28 25 24 23 23 24 25 24
20 20 21 21 21 22 21 21 20 20 20 19 19 18 18 18 17 17 16 16 16 17 18 17 17 17 17 17 16 16 17 17 16 16 16 16 17 17 17 17 19 21 22 20 19 19 22 25 25 25 25 25 24 23 22 23 24 25 26 27 29 30 30 30 30 30 29 29 29 29 30 29 27 26 27 28 28 29 30 30 28 27 26 26 26 27 28 27
20 20 20 20 20 20 19 19 19 18 18 17 17 16 16 15 15 14 14 13 14 15 16 16 16 16 16 16 16 16 16 16 16 16 16 16 17 18 18 18 19 20 20 18 17 16 19 23 24 24 25 25 24 22 22 24 24 25 25 27 29 30 30 30 30 31 31 31 31 31 31 31 28 26 27 29 29 29 29 30 31 31 31 31 30 30 30 29
21 20 20 19 18 17 17 17 17 17 17 16 15 15 14 14 13 13 12 11 12 14 14 15 15 15 15 14 14 15 15 15 15 15 16 16 17 18 18 18 19 20 20 18 17 16 17 20 22 23 23 23 23 22 23 25 25 24 26 27 28 29 29 30 30 31 32 32 32 31 32 32 30 27 28 30 30 29 30 32 33 34 35 35 33 32 32 31
21 20 19 17 16 16 15 16 16 16 16 15 14 13 12 12 11 11 10 9 10 11 11 12 12 12 12 12 13 13 14 15 15 16 16 16 16 16 17 17 18 19 20 19 18 18 18 19 21 20 19 20 22 22 23 24 24 25 26 27 28 29 30 31 31 31 32 32 31 31 31 32 32 30 30 31 30 30 32 33 35 36 37 37 35 36 36 35
19 19 18 17 15 15 15 15 15 16 15 13 12 11 10 9 9 7 7 8 9 8 7 9 10 9 9 9 11 11 12 13 14 15 15 15 14 15 15 16 17 18 20 21 20 20 20 20 20 19 18 19 20 21 22 23 24 26 26 27 28 29 30 30 30 30 31 31 28 27 28 29 31 31 31 32 30 30 33 34 35 36 37 37 36 36 35 31
18 17 17 16 15 14 14 14 14 15 14 12 12 11 9 8 7 5 5 7 9 7 6 7 8 9 8 7 8 8 9 10 11 12 12 12 12 13 14 15 16 17 19 20 20 19 20 20 19 18 18 19 20 21 22 23 25 25 25 25 25 25 25 25 26 26 27 25 23 22 23 25 27 28 30 31 30 30 33 33 33 34 34 33 32 30 28 24
17 16 16 15 15 14 14 13 14 14 13 12 12 11 10 8 7 5 5 6 8 8 8 8 8 7 7 6 5 5 7 8 8 9 9 9 9 10 11 13 15 16 17 19 20 19 19 19 18 18 17 18 20 21 22 22 22 22 22 23 22 22 22 21 22 23 23 22 21 22 22 23 24 24 26 28 28 28 29 29 29 28 28 28 27 25 24 22
16 16 16 15 14 14 14 14 14 15 14 14 14 13 11 10 8 7 6 6 7 8 9 10 8 7 7 6 6 6 7 7 7 8 9 8 9 9 10 11 13 14 16 18 20 20 19 18 18 17 17 18 18 19 19 20 21 22 21 21 22 22 22 21 21 22 21 21 21 23 23 23 23 23 24 25 25 26 26 26 26 24 24 25 25 25 24 21
16 16 16 15 15 15 15 15 15 15 16 15 15 15 13 12 10 8 8 7 7 8 10 11 10 10 9 9 9 9 9 8 8 9 10 11 11 12 13 13 13 14 15 17 18 19 19 17 17 17 17 17 18 17 19 20 21 22 21 22 22 22 23 22 21 21 21 21 22 22 21 22 22 22 22 23 23 23 24 25 24 23 22 23 24 26 25 22
16 16 16 16 16 15 15 16 16 16 16 16 17 16 15 13 12 11 10 9 8 9 10 12 12 12 11 11 11 11 11 11 11 12 13 14 14 15 16 17 17 16 16 17 17 18 18 17 17 17 17 18 17 18 21 22 22 22 22 22 22 23 23 22 22 22 22 23 24 24 22 22 22 21 20 21 22 24 24 25 24 23 22 22 24 26 27 25
17 16 17 17 16 16 15 15 16 16 16 17 17 17 16 15 15 14 13 11 10 10 11 12 13 13 14 13 12 13 13 14 14 14 16 17 17 18 19 20 21 20 19 19 19 19 19 18 17 17 18 18 17 19 22 23 23 24 24 22 23 24 24 23 23 23 24 25 26 25 24 23 23 22 20 19 21 23 24 24 24 24 23 23 24 27 28 27
18 17 16 16 16 16 16 16 16 16 16 17 18 17 17 17 17 17 15 14 13 13 13 14 15 15 16 16 15 15 16 17 18 18 19 20 20 21 22 22 23 23 23 23 22 23 23 21 19 18 18 18 18 20 22 24 25 26 26 25 25 26 26 26 26 26 25 25 25 24 24 24 23 23 22 20 21 23 24 25 25 25 25 24 25 27 29 29
20 19 17 16 16 16 16 16 16 16 17 17 18 18 18 18 19 19 18 17 16 16 16 17 18 18 18 18 18 19 19 20 21 21 22 24 24 24 25 25 26 26 26 26 26 26 27 25 23 22 21 20 21 22 23 25 26 26 27 28 28 28 28 28 28 28 27 26 26 25 24 24 24 24 23 23 23 23 25 26 27 26 25 25 26 29 31 31
23 21 19 18 18 18 17 17 17 17 17 17 18 18 19 19 19 19 19 18 18 19 19 20 20 21 21 21 21 22 22 22 23 24 24 26 27 28 28 28 28 28 29 29 29 29 30 30 28 26 25 24 25 25 25 26 27 27 28 29 30 29 29 29 30 30 29 28 29 28 27 27 26 26 26 26 26 26 26 27 28 27 26 26 28 31 33 34
26 24 22 20 21 21 20 20 19 18 18 18 18 19 20 20 20 21 21 21 21 21 22 22 23 23 23 24 24 24 24 24 25 25 26 27 29 30 30 30 30 30 30 30 31 31 32 33 32 30 29 29 29 29 29 28 29 29 29 29 30 30 30 30 31 31 31 31 32 33 32 32 31 31 31 31 31 30 29 29 29 30 31 31 31 31 33 34
29 27 25 24 24 24 24 23 21 21 20 20 20 21 22 22 22 23 24 24 24 24 25 25 26 26 26 27 27 27 27 27 26 27 28 28 29 30 31 31 31 31 30 30 32 33 34 35 35 35 34 33 33 33 32 32 32 32 31 32 32 32 32 32 33 33 34 34 36 37 37 37 37 36 36 36 35 34 33 32 33 34 35 35 34 33 33 33
31 30 28 28 28 28 27 26 25 24 23 23 23 24 25 25 25 26 26 27 28 28 28 29 29 30 30 30 30 30 29 29 28 28 29 30 30 31 32 32 32 31 30 30 32 34 35 37 38 38 37 37 37 37 36 36 36 35 35 35 35 35 35 34 35 36 37 38 39 39 40 40 40 39 39 40 40 39 37 36 36 36 36 36 35 34 34 35
32 32 32 31 31 31 31 30 29 27 27 27 27 27 28 28 28 28 29 30 31 32 32 32 33 33 33 33 33 32 32 32 31 30 30 31 32 32 33 33 33 33 32 32 33 34 36 37 39 40 40 40 39 40 40 39 39 39 38 37 38 39 38 37 37 38 40 41 41 41 43 44 42 40 40 41 43 44 44 42 39 38 37 36 36 35 35 36
32 33 34 34 34 35 35 34 32 31 31 30 31 31 31 31 32 31 32 33 34 35 35 35 36 35 35 35 35 35 34 34 34 33 32 32 33 34 34 35 35 34 34 34 35 35 36 38 39 40 41 41 41 41 42 42 41 41 41 41 41 41 42 42 42 42 43 44 43 43 46 47 45 43 43 43 45 46 48 48 46 43 39 37 37 37 37 37
32 33 34 34 35 36 38 37 36 35 35 34 34 34 34 35 35 34 34 35 36 36 36 37 37 37 37 36 36 36 36 36 36 36 35 34 34 34 34 35 36 36 36 36 36 37 37 38 39 40 41 42 41 41 41 41 43 43 44 44 44 44 45 45 46 47 48 49 48 49 50 50 50 49 48 48 49 50 50 50 50 48 45 42 41 40 39 39
31 33 33 34 34 35 37 38 38 38 37 37 37 38 37 37 37 38 38 38 38 38 38 38 39 39 39 39 38 38 39 39 38 38 38 37 36 36 35 35 36 36 37 37 37 37 37 37 38 39 41 41 41 41 40 41 42 43 44 45 46 47 48 48 50 51 51 53 53 54 54 54 55 55 53 53 54 53 52 51 51 51 49 47 46 45 43 42
31 32 33 34 34 34 35 36 36 37 37 37 38 38 38 38 38 39 39 39 39 39 40 40 40 40 40 40 40 40 40 40 40 40 39 39 38 37 36 35 35 36 37 37 37 37 37 38 38 38 40 41 41 42 42 42 42 43 43 44 45 47 48 50 51 52 53 55 56 55 54 55 55 55 55 55 55 53 52 52 52 52 51 50 49 48 47 45
31 31 32 33 34 34 35 35 36 36 37 37 37 37 37 37 38 38 39 39 39 39 40 40 40 40 40 41 41 41 41 41 41 40 40 39 38 37 36 35 35 35 36 36 37 38 38 38 39 39 40 41 42 43 43 44 44 44 44 44 45 46 47 48 50 51 53 54 55 53 53 54 53 53 53 54 54 52 52 52 52 51 51 51 50 50 50 49
29 30 31 32 33 34 35 35 36 36 37 37 37 37 37 37 37 38 38 39 39 39 39 40 40 40 40 41 41 40 41 41 41 40 40 40 39 37 36 35 35 35 36 37 38 39 40 40 41 41 42 42 43 44 45 45 46 46 45 45 45 46 46 48 49 50 51 52 52 53 54 54 53 53 52 52 52 52 52 52 52 52 52 53 53 52 52 53
27 28 28 30 31 32 33 33 34 35 36 37 37 37 37 37 37 38 38 39 39 39 39 39 41 41 41 41 41 41 41 41 40 40 40 39 39 38 37 37 36 37 37 38 40 41 42 43 43 44 45 44 44 45 46 46 47 47 46 47 47 46 45 46 47 47 49 50 50 52 54 53 52 52 51 50 50 50 51 51 52 52 53 53 53 53 53 53
27 27 27 28 29 29 30 30 31 32 33 34 35 36 36 36 36 37 38 39 40 40 40 40 40 41 40 40 40 40 40 40 40 40 40 40 40 39 39 39 39 39 39 40 41 43 44 45 45 46 47 46 45 46 46 47 48 48 48 47 46 45 44 43 43 44 46 47 48 51 52 51 49 50 51 50 50 49 50 50 51 52 53 53 54 54 54 54
28 28 28 28 29 29 30 30 30 31 32 32 33 34 35 35 36 37 38 40 40 40 40 40 40 40 40 39 39 39 40 40 41 41 41 41 41 41 41 41 41 41 41 41 42 43 45 46 47 48 49 47 46 46 46 47 50 51 49 45 44 44 44 43 43 43 44 45 46 48 48 47 48 50 51 50 50 50 51 52 52 52 53 54 54 55 55 55
Wind_Direction
273 275 277 278 278 279 279 279 279 279 278 276 273 270 267 265 264 264 264 265 265 265 264 264 263 263 263 263 262 262 262 261 261 260 260 259 257 256 255 254 254 252 251 250 249 248 248 247 246 245 245 244 244 244 245 247 249 249 247 244 242 240 241 242 244 244 242 241 241 242 243 244 247 245 241 240 241 241 241 242 243 246 248 250 253 257 258 260
274 276 277 278 278 279 279 280 280 280 279 276 272 268 265 262 261 261 261 261 262 262 262 262 262 261 261 261 261 260 260 259 259 259 258 257 256 255 254 252 251 250 249 249 248 247 246 244 244 243 243 243 243 244 244 246 248 248 247 245 242 241 242 244 247 247 244 243 244 244 244 245 247 246 243 240 239 241 243 245 246 249 251 252 254 256 259 262
275 276 277 278 279 279 280 280 281 281 280 276 271 266 262 260 259 258 259 259 260 261 261 261 260 259 259 258 258 257 258 258 258 258 258 257 256 255 253 251 250 249 248 247 246 246 245 244 244 244 244 243 243 243 243 244 244 245 244 244 242 241 243 246 248 249 247 246 246 246 246 246 246 244 242 240 238 240 242 245 247 248 250 251 252 255 259 265
275 277 278 278 279 280 280 281 283 284 281 276 271 265 260 257 256 257 257 259 260 261 261 261 260 258 256 255 255 256 257 257 258 259 259 258 256 254 253 251 249 248 246 245 245 245 245 245 244 244 244 243 242 241 241 241 241 241 239 240 242 242 245 247 248 250 250 248 247 247 247 246 246 244 241 239 238 238 239 241 242 244 247 249 252 256 260 268
276 277 278 279 280 281 281 282 284 286 283 277 271 264 259 257 256 256 258 259 260 261 261 261 260 258 256 255 255 256 257 257 258 259 259 258 256 254 252 251 249 247 245 244 244 244 245 245 245 244 244 243 242 240 239 239 240 240 234 236 241 242 245 246 247 249 250 250 248 248 247 246 246 244 241 239 236 234 236 239 241 243 246 250 253 257 263 270
276 277 278 280 281 282 282 282 285 288 285 278 270 264 259 257 257 257 258 259 259 260 260 260 259 258 258 257 255 255 256 258 259 259 258 257 254 252 250 249 247 246 245 244 244 244 245 245 245 244 244 244 243 240 240 240 241 238 230 232 238 240 243 245 245 246 249 250 250 249 247 245 245 243 242 241 236 236 240 243 244 246 248 251 255 260 266 271
274 276 278 280 282 283 283 282 285 289 287 278 269 262 258 257 257 258 257 257 257 258 258 257 257 259 259 257 255 255 257 259 261 260 259 257 254 251 248 246 245 244 244 244 244 244 245 245 245 245 244 244 242 240 241 242 241 235 228 230 236 238 241 244 244 245 248 249 251 252 248 246 243 241 243 241 238 240 244 245 247 250 251 253 257 262 266 271
271 273 276 279 281 283 285 284 285 289 290 282 269 262 258 257 256 255 255 255 255 255 256 257 257 258 257 256 257 258 259 260 261 261 261 258 254 252 249 246 243 243 243 243 243 243 244 245 246 247 247 246 243 242 243 243 240 233 229 232 237 237 239 243 244 242 244 248 251 251 248 246 243 242 243 240 239 241 243 245 248 251 252 254 258 262 267 273
268 271 274 277 280 283 286 288 288 290 292 289 277 267 261 259 257 255 254 254 255 256 258 259 259 258 257 257 258 258 259 260 260 260 260 258 256 253 251 249 245 243 242 242 242 244 245 247 248 248 248 247 245 245 246 245 241 236 235 238 239 238 239 243 240 235 237 244 249 249 247 246 245 244 242 240 240 242 243 246 247 249 252 256 259 263 268 273
265 268 272 276 278 282 285 289 292 293 294 294 289 279 270 265 261 258 256 255 256 257 259 260 261 260 258 257 256 256 257 258 259 258 257 256 256 253 251 249 247 245 244 244 245 247 249 248 247 246 246 245 245 248 248 246 242 239 240 241 239 236 239 241 237 233 233 238 245 247 246 245 246 245 242 241 243 244 245 246 247 252 255 259 262 265 269 272
263 267 271 274 277 279 283 287 292 296 299 300 298 294 285 274 267 262 258 257 256 257 258 257 258 259 259 258 257 258 258 258 258 258 256 253 252 251 248 246 245 243 242 242 241 242 241 239 238 238 241 243 245 246 245 244 242 240 241 241 239 237 238 239 236 234 232 234 241 246 245 246 249 249 245 246 247 246 247 249 253 258 260 261 262 264 269 270
263 267 270 273 275 278 280 283 288 293 298 301 301 300 294 285 275 267 261 258 256 256 256 256 257 258 260 261 261 261 260 259 257 256 254 252 251 249 245 244 244 241 238 236 234 233 231 229 229 231 234 238 240 240 237 237 236 237 238 239 240 238 237 237 235 236 234 234 241 247 249 249 250 250 248 249 250 250 252 255 258 259 260 259 258 262 266 265
262 267 271 273 275 276 278 281 284 288 292 295 296 296 295 290 283 275 266 260 258 257 259 260 261 262 263 264 263 261 260 259 256 255 254 252 251 248 244 243 245 245 242 240 237 235 232 229 228 227 228 230 228 227 228 229 230 232 232 235 241 240 238 238 238 238 236 236 242 248 249 248 248 247 247 249 251 253 256 258 260 260 258 254 253 258 261 262
262 267 271 274 275 276 277 279 281 284 287 288 289 291 290 289 286 281 275 267 263 261 261 261 261 261 262 262 263 262 260 260 259 259 258 255 253 249 245 243 246 248 248 247 244 241 236 232 230 226 226 227 222 219 222 225 228 229 228 232 239 239 238 238 238 237 233 235 240 243 245 245 244 245 247 248 250 253 257 260 260 260 258 253 253 258 261 263
261 266 271 274 276 276 277 278 279 282 284 286 288 288 287 286 285 283 280 276 271 267 265 262 260 259 258 258 260 261 260 261 262 263 263 261 257 251 245 242 243 245 248 250 250 246 240 236 233 229 229 230 224 220 220 223 226 226 227 233 236 237 239 237 237 236 232 233 237 240 243 243 243 247 249 250 253 255 256 256 255 256 255 252 253 257 260 261
261 266 270 274 276 277 277 277 278 279 282 285 287 287 285 283 281 281 280 278 276 273 270 265 261 258 256 254 254 257 258 260 262 264 265 264 260 252 245 241 240 240 242 243 243 243 241 239 236 234 236 235 228 220 218 218 222 224 228 234 234 234 238 237 236 237 236 236 239 243 245 244 244 249 253 254 256 257 255 252 252 252 252 251 252 255 257 257
262 266 269 273 275 277 277 276 276 278 280 284 285 285 284 282 279 277 277 277 276 274 273 271 265 259 256 254 251 253 255 258 259 260 262 263 260 254 248 243 239 238 239 237 233 228 226 230 234 236 236 234 226 218 213 214 221 224 228 233 231 230 233 235 235 236 238 240 241 244 244 242 244 249 253 254 254 255 255 254 255 255 255 255 255 256 257 257
262 265 269 271 274 275 275 275 275 276 279 282 284 284 284 282 279 275 273 271 270 269 269 269 268 262 258 255 253 251 250 252 254 255 258 260 260 257 253 247 243 241 242 240 235 228 222 223 228 233 236 232 226 221 217 218 224 226 228 231 229 226 228 232 236 235 235 237 237 239 238 236 240 245 250 252 253 254 255 256 257 256 256 256 256 257 257 257
261 265 268 270 273 274 274 274 274 276 278 280 282 283 282 280 277 275 271 268 267 267 265 264 265 263 259 256 254 252 250 249 248 250 252 256 258 258 257 253 248 245 245 244 242 238 232 228 227 231 234 233 230 228 227 226 228 230 230 232 232 230 229 230 235 236 235 235 233 232 232 232 238 244 249 251 253 255 255 256 256 255 254 254 254 253 251 251
262 265 268 270 272 273 274 274 275 276 278 279 280 279 278 277 276 274 271 268 266 266 266 264 261 259 257 255 255 256 256 255 252 249 248 250 253 256 256 254 250 247 246 245 246 245 241 237 234 233 234 234 234 234 235 235 235 235 234 236 236 237 237 237 238 238 238 239 237 234 232 233 239 246 249 251 253 254 255 256 257 255 253 251 250 248 247 248
263 266 268 271 272 274 275 275 276 277 277 278 276 275 275 274 274 272 270 268 266 264 264 262 260 259 259 258 258 258 258 258 256 253 249 248 249 252 254 253 251 249 248 249 250 250 248 244 240 239 239 240 239 239 241 242 242 241 240 241 241 242 243 245 246 245 242 242 243 241 238 237 241 246 250 252 255 257 258 259 260 257 253 250 247 247 247 249
264 266 269 271 273 275 276 277 277 277 277 276 275 274 274 273 271 269 268 267 266 265 262 260 260 261 261 259 256 255 255 254 253 253 252 251 249 250 253 253 253 253 253 254 254 253 251 248 247 247 248 248 246 244 244 245 247 247 247 248 248 248 248 248 250 250 248 245 244 245 244 242 242 244 248 251 255 259 261 261 259 256 255 254 250 248 249 252
266 268 271 273 275 276 277 277 278 278 277 277 276 276 275 274 272 270 267 264 263 262 261 259 259 259 260 258 256 254 254 253 252 251 251 251 251 252 254 256 257 259 258 256 254 253 252 251 253 253 253 253 253 251 250 249 249 249 249 248 248 249 248 246 247 250 250 248 245 244 246 246 246 246 248 251 254 258 261 260 256 251 251 252 252 251 252 255
269 271 273 275 276 276 277 278 278 278 278 277 277 276 275 274 272 270 267 263 261 258 257 256 255 257 258 257 255 254 254 253 253 252 251 251 251 252 254 256 258 259 258 256 256 256 255 255 257 257 256 256 256 255 254 253 251 249 247 244 242 244 246 246 245 246 248 249 248 246 245 246 248 251 252 254 255 257 259 259 256 251 248 249 250 251 253 257
271 272 274 276 277 277 278 278 278 278 277 277 277 276 275 273 271 269 266 262 259 256 254 253 252 253 254 254 254 253 253 254 254 253 253 252 251 252 254 254 254 255 256 257 257 257 257 258 258 258 259 258 258 257 256 255 254 253 250 248 247 248 250 251 250 248 248 249 250 250 248 246 246 249 252 254 256 258 259 261 261 259 256 254 255 255 256 258
272 273 275 276 277 278 278 278 277 277 276 276 276 275 274 273 270 267 264 260 257 254 252 250 249 249 249 249 251 252 252 253 255 255 256 257 256 256 256 255 254 256 257 259 258 256 256 258 258 258 258 258 258 259 258 257 256 256 256 256 256 256 256 256 257 256 253 251 251 251 252 251 246 246 250 252 254 257 260 263 267 266 263 262 261 258 259 261
275 275 275 276 276 276 276 276 275 275 275 275 275 274 272 269 265 262 262 260 257 255 252 249 246 246 246 246 248 251 253 255 257 259 260 260 260 259 258 257 258 260 261 261 260 256 255 258 258 257 257 258 258 258 257 255 254 255 257 258 260 261 261 261 261 260 259 257 255 254 255 256 254 251 253 255 255 257 261 264 266 267 267 266 263 260 262 264
277 277 276 275 273 272 272 272 273 273 273 273 272 271 268 264 259 257 260 260 256 253 252 251 248 247 248 247 249 251 254 257 258 259 260 259 259 259 259 259 260 263 264 262 260 256 252 254 256 256 257 259 259 257 257 257 257 258 258 258 260 262 263 262 262 261 261 260 260 259 258 260 260 257 254 256 258 259 261 263 266 268 270 270 270 270 271 270
278 277 276 274 271 270 268 269 270 271 271 270 266 264 264 263 259 258 259 256 252 251 251 250 248 248 247 248 252 254 254 256 255 256 258 256 256 259 261 262 262 263 262 259 256 255 252 251 254 257 256 256 257 257 258 261 263 262 261 261 261 261 261 261 261 261 261 261 262 264 264 264 263 261 257 256 257 258 259 262 266 269 271 273 275 276 275 275
276 275 274 273 271 269 267 266 267 267 266 264 260 257 257 258 258 258 258 247 241 245 247 240 236 235 236 239 247 250 251 252 253 254 257 258 258 260 262 265 265 263 262 258 254 253 254 253 255 259 256 251 251 252 254 256 258 259 260 259 259 259 259 260 261 261 261 262 263 265 266 265 263 262 260 257 254 254 256 260 263 266 270 273 274 274 275 277
273 273 272 272 270 268 265 262 261 261 259 255 251 245 242 248 247 241 243 233 225 226 228 224 224 225 225 227 234 239 244 251 258 264 266 268 268 266 265 266 266 265 265 263 258 255 255 255 256 258 256 252 249 249 249 252 254 256 256 255 256 257 259 261 263 263 262 264 265 263 262 261 263 263 263 262 257 255 258 261 263 263 266 270 272 273 275 277
271 271 271 271 270 267 262 258 255 255 253 247 243 236 232 238 236 225 227 225 224 228 225 214 215 223 226 229 233 237 245 255 267 275 278 281 281 279 277 276 275 273 271 270 268 263 259 257 257 256 255 256 256 256 256 258 259 260 257 256 257 259 259 261 265 266 266 268 268 266 264 265 267 267 266 265 263 262 264 266 265 264 265 268 272 275 276 273
268 267 268 269 269 265 260 255 253 252 251 245 239 234 231 234 234 229 232 234 236 234 221 212 216 231 243 251 256 257 260 266 270 274 280 285 288 291 289 285 283 279 276 274 274 272 268 263 261 260 258 259 261 264 265 266 266 266 265 265 265 266 266 267 268 269 271 273 273 272 272 271 269 268 267 264 263 264 264 264 263 263 266 270 273 274 272 267
265 264 265 266 265 263 258 255 253 253 251 246 240 238 236 236 237 238 238 241 244 238 226 225 234 245 254 264 271 273 276 279 279 282 287 291 295 296 293 291 289 286 284 281 279 279 276 271 268 268 266 264 265 266 265 264 265 267 268 270 271 272 274 274 273 273 274 274 273 273 273 272 269 268 266 263 260 259 257 258 260 259 262 266 269 269 266 261
262 261 262 261 262 261 257 254 253 253 252 248 244 244 244 241 240 240 239 241 245 246 242 241 247 254 260 268 276 280 286 290 292 294 294 296 299 296 293 294 293 292 290 287 284 281 277 273 273 274 272 269 266 264 262 262 262 264 266 269 272 273 274 275 276 276 274 272 270 269 269 269 270 269 265 262 259 255 253 256 259 259 258 261 264 265 263 259
259 258 259 259 259 258 256 254 252 252 251 250 249 250 249 246 244 244 245 245 247 253 256 256 261 267 274 279 282 285 291 294 296 296 295 295 295 292 291 291 291 292 290 288 286 283 280 275 271 270 271 272 269 264 264 264 262 262 263 266 269 270 270 273 275 275 273 271 269 268 268 267 268 268 264 260 259 258 256 256 258 259 259 259 262 263 262 258
254 253 253 254 254 254 253 252 251 250 251 252 253 253 252 250 248 249 253 255 256 261 266 268 269 272 278 283 287 291 294 294 295 296 294 294 292 291 290 289 290 290 289 289 287 285 285 281 275 269 266 265 264 263 265 266 265 265 264 263 264 266 267 269 270 271 270 270 269 268 269 268 266 267 267 265 263 261 259 256 254 256 258 259 261 263 263 260
249 248 246 246 248 248 248 248 248 249 249 251 253 254 254 252 251 254 257 258 259 262 266 269 271 273 278 282 286 290 293 293 294 295 294 293 293 292 290 289 289 289 288 288 287 285 286 284 280 276 270 265 262 260 261 263 264 264 264 264 263 264 266 266 266 267 268 269 270 268 267 266 266 267 270 270 267 262 259 255 253 252 255 259 261 262 263 261
247 246 244 244 244 244 244 244 245 246 248 250 252 253 253 253 252 254 257 258 259 260 263 267 271 275 279 282 284 287 289 289 291 291 289 289 290 290 290 289 288 288 287 287 286 286 286 285 283 280 276 273 268 265 263 262 262 262 261 262 263 262 262 261 261 263 264 266 267 266 264 263 264 265 267 268 266 263 259 257 254 251 252 260 264 261 259 258
247 247 247 246 245 245 244 244 245 246 248 251 253 254 253 253 253 254 255 258 260 262 264 268 271 275 278 280 282 284 286 286 286 287 285 285 286 287 289 288 287 285 284 284 284 283 282 282 280 278 276 274 272 271 269 267 266 266 265 264 264 263 261 260 260 260 261 263 264 265 265 265 265 265 265 266 266 264 261 258 255 253 257 264 267 261 257 257
246 248 249 248 248 248 248 248 249 250 250 252 254 257 257 256 257 258 259 262 265 267 269 271 273 276 277 279 280 281 282 283 284 284 283 283 283 284 285 286 285 283 282 280 280 279 278 277 276 275 273 272 271 271 271 270 269 270 270 269 267 266 263 261 260 260 262 263 264 266 267 268 269 269 269 269 268 267 263 259 256 256 260 264 265 261 259 259
247 248 249 250 251 252 252 253 254 254 255 256 257 260 262 262 262 264 265 266 269 271 272 274 276 277 278 278 279 279 280 281 281 281 281 281 281 281 282 282 281 279 278 275 273 273 273 273 273 272 271 269 268 268 268 268 268 268 268 268 268 268 266 264 263 263 263 264 264 265 266 268 269 271 273 275 275 274 271 265 261 259 260 262 261 260 260 261
248 249 249 250 252 255 256 256 256 257 259 260 262 264 266 267 267 269 270 271 272 274 275 276 277 278 278 279 279 279 280 280 280 279 279 279 279 279 279 278 276 275 273 270 267 267 267 268 269 270 269 268 267 266 265 265 265 265 266 266 265 265 265 264 263 263 262 262 262 263 266 267 268 269 272 277 280 281 279 274 269 264 261 260 260 259 260 261
250 251 251 251 253 255 257 258 258 259 261 262 264 265 267 268 269 270 271 273 274 276 277 278 279 279 279 279 279 280 280 280 280 279 278 277 277 277 277 276 275 273 271 269 266 264 263 263 264 265 265 265 265 264 265 265 265 264 263 262 262 261 261 261 261 262 262 262 262 263 266 268 268 269 271 273 277 280 280 277 274 271 266 262 261 259 258 259
255 255 254 254 254 255 258 259 260 261 262 263 265 266 267 268 270 271 272 273 273 274 276 276 277 278 278 278 279 279 279 279 280 280 280 279 277 277 276 275 274 273 272 270 267 266 263 262 263 263 263 263 263 262 262 263 263 263 262 261 260 259 259 258 258 259 259 261 261 262 264 265 266 267 269 271 274 276 275 274 273 273 271 267 265 263 261 260
259 260 260 259 258 258 258 259 261 262 263 264 265 266 267 269 270 271 271 271 272 272 273 274 274 275 276 276 277 277 278 279 279 280 281 281 279 278 277 275 274 273 271 269 268 267 265 263 263 263 263 264 264 262 260 258 258 259 260 260 259 259 258 257 257 257 257 259 259 261 263 264 265 266 268 269 270 271 270 269 270 271 270 269 269 268 265 263
262 262 263 263 263 262 262 262 262 263 264 264 265 266 267 269 270 271 271 271 272 272 273 273 274 274 275 276 276 277 278 278 279 280 280 280 279 279 277 275 272 271 269 268 267 267 266 266 265 265 265 265 266 265 264 261 259 257 257 257 257 258 258 258 258 259 259 259 259 261 263 264 264 265 266 266 266 266 265 265 266 267 268 268 268 268 266 264
264 264 264 265 265 265 264 264 264 264 264 265 265 266 267 268 269 270 271 271 271 272 272 273 273 274 275 275 276 277 277 278 278 278 279 278 278 276 275 273 270 269 267 267 267 267 267 268 268 268 267 267 267 267 266 266 264 262 259 257 256 256 257 257 258 259 260 260 261 262 263 263 263 263 264 264 264 264 263 263 263 264 264 265 265 264 264 264
266 266 266 266 266 266 266 265 265 265 265 265 265 265 265 265 266 267 268 268 269 269 270 271 271 272 273 274 275 275 276 277 277 278 278 277 276 274 271 269 268 266 266 266 266 266 267 267 267 268 268 268 268 268 268 268 268 267 265 263 261 258 257 256 257 258 259 261 262 263 263 263 263 263 262 262 262 262 262 261 261 261 261 262 262 262 262 262
271 270 269 268 268 267 267 267 266 266 266 266 266 265 265 265 265 266 266 266 267 268 268 269 270 271 272 273 274 275 275 276 276 276 276 276 275 273 271 268 266 265 266 266 267 267 267 267 267 267 267 267 267 267 268 269 269 269 269 268 267 265 264 263 262 261 261 261 262 262 263 263 264 263 263 262 261 260 260 260 260 260 260 261 261 261 261 261
274 274 272 272 271 270 269 269 269 269 268 269 269 269 269 269 269 269 269 268 269 270 270 271 271 272 273 273 274 275 276 276 276 276 275 274 273 272 271 269 267 266 265 265 266 267 268 268 268 268 268 269 268 267 268 269 270 270 269 269 271 272 271 270 268 265 264 262 261 261 261 263 264 264 263 263 262 262 261 260 260 259 260 260 260 261 261 261
274 274 274 274 273 273 273 273 272 272 271 271 272 272 272 272 272 272 272 271 271 271 272 272 272 273 273 273 274 274 275 276 276 275 275 274 273 272 271 270 269 267 265 264 263 264 265 266 268 268 269 270 270 269 269 269 269 269 270 272 274 275 274 272 269 266 265 264 262 261 262 262 263 263 264 264 263 263 263 263 262 261 261 260 261 261 261 262
Height
5761 5761 5760 5760 5759 5759 5758 5757 5756 5756 5755 5754 5754 5754 5754 5754 5754 5755 5755 5755 5755 5756 5756 5756 5756 5756 5756 5757 5757 5758 5758 5758 5759 5759 5759 5759 5760 5760 5761 5761 5762 5762 5762 5763 5764 5765 5766 5767 5769 5770 5770 5771 5772 5773 5774 5775 5777 5778 5779 5781 5782 5783 5783 5782 5781 5783 5785 5787 5788 5789 5790 5791 5792 5795 5798 5799 5801 5802 5802 5804 5805 5805 5806 5808 5808 5809 5808 5808
5759 5759 5758 5758 5757 5757 5756 5755 5754 5753 5752 5752 5751 5751 5751 5752 5752 5752 5753 5753 5753 5753 5753 5753 5753 5754 5754 5755 5755 5755 5756 5756 5756 5756 5757 5757 5757 5758 5759 5759 5759 5759 5760 5761 5762 5763 5764 5765 5766 5767 5768 5769 5770 5771 5772 5773 5775 5776 5777 5779 5780 5780 5779 5779 5779 5780 5783 5784 5785 5786 5788 5789 5790 5792 5794 5796 5798 5799 5801 5802 5803 5804 5804 5805 5806 5805 5805 5805
5758 5757 5756 5756 5755 5754 5754 5753 5752 5751 5750 5749 5749 5749 5749 5749 5750 5750 5750 5751 5751 5751 5751 5751 5751 5751 5752 5752 5752 5753 5753 5754 5754 5754 5755 5755 5755 5756 5756 5756 5756 5757 5758 5759 5760 5761 5762 5763 5764 5765 5766 5767 5768 5769 5770 5771 5772 5773 5775 5777 5777 5777 5776 5777 5777 5778 5780 5782 5783 5784 5786 5787 5788 5790 5791 5794 5796 5797 5799 5799 5800 5801 5801 5802 5802 5802 5802 5803
5756 5755 5755 5754 5753 5753 5752 5751 5750 5749 5748 5747 5747 5747 5747 5747 5747 5748 5748 5748 5748 5748 5748 5749 5749 5749 5749 5749 5750 5751 5751 5751 5752 5752 5752 5752 5753 5753 5753 5754 5754 5755 5756 5756 5757 5759 5760 5761 5762 5763 5764 5764 5765 5766 5767 5768 5770 5771 5773 5774 5774 5774 5774 5775 5774 5775 5778 5780 5781 5782 5784 5785 5786 5788 5790 5792 5794 5795 5796 5796 5797 5798 5798 5799 5799 5800 5800 5801
5754 5753 5753 5752 5752 5751 5750 5749 5749 5747 5746 5746 5745 5745 5745 5745 5746 5746 5746 5746 5746 5746 5746 5746 5746 5746 5747 5747 5748 5749 5749 5749 5749 5750 5750 5750 5750 5750 5751 5751 5752 5753 5753 5754 5755 5756 5757 5758 5759 5760 5761 5762 5763 5764 5765 5766 5767 5769 5770 5771 5771 5772 5772 5772 5772 5773 5775 5777 5779 5781 5782 5783 5785 5786 5788 5790 5792 5792 5793 5793 5794 5795 5795 5796 5797 5798 5799 5800
5752 5752 5751 5751 5750 5749 5749 5748 5747 5746 5745 5744 5743 5743 5743 5744 5744 5744 5744 5744 5744 5744 5744 5744 5744 5744 5745 5746 5746 5746 5747 5747 5747 5747 5747 5747 5747 5748 5748 5749 5749 5750 5751 5752 5753 5754 5755 5756 5756 5757 5758 5759 5760 5761 5762 5763 5765 5766 5767 5768 5768 5769 5769 5769 5769 5771 5773 5775 5777 5779 5780 5781 5783 5784 5786 5788 5789 5789 5790 5791 5792 5793 5794 5795 5795 5796 5797 5797
5751 5750 5750 5749 5749 5748 5747 5746 5746 5745 5744 5743 5742 5742 5742 5742 5742 5742 5743 5743 5743 5743 5743 5743 5743 5743 5744 5744 5744 5745 5745 5745 5745 5745 5745 5745 5745 5745 5746 5746 5747 5748 5749 5750 5751 5751 5752 5753 5753 5754 5755 5756 5758 5759 5759 5760 5762 5763 5764 5765 5765 5766 5767 5767 5767 5768 5770 5772 5775 5777 5778 5779 5781 5782 5784 5786 5786 5787 5788 5789 5790 5791 5792 5793 5794 5794 5794 5795
5749 5749 5748 5748 5747 5747 5746 5745 5745 5744 5743 5742 5741 5741 5741 5741 5741 5741 5741 5741 5741 5741 5741 5741 5741 5742 5743 5743 5743 5743 5743 5743 5743 5743 5743 5743 5743 5744 5744 5744 5745 5746 5747 5747 5748 5749 5749 5750 5751 5752 5753 5754 5756 5756 5757 5758 5760 5761 5762 5762 5763 5764 5764 5765 5766 5766 5768 5769 5772 5775 5776 5777 5779 5780 5782 5783 5784 5785 5786 5787 5788 5790 5790 5791 5791 5791 5792 5792
5748 5748 5747 5747 5746 5746 5745 5744 5743 5743 5742 5741 5741 5740 5740 5740 5740 5740 5740 5740 5740 5740 5740 5740 5740 5741 5741 5741 5741 5741 5741 5741 5741 5741 5741 5741 5742 5742 5742 5742 5743 5744 5744 5745 5745 5746 5747 5748 5750 5751 5752 5753 5754 5754 5756 5757 5759 5760 5760 5760 5761 5762 5762 5763 5764 5765 5765 5767 5770 5772 5773 5775 5776 5778 5779 5780 5781 5782 5783 5785 5786 5787 5788 5788 5788 5789 5790 5790
5746 5746 5746 5745 5745 5744 5744 5743 5743 5742 5741 5740 5740 5739 5739 5739 5739 5739 5739 5739 5738 5738 5738 5739 5739 5740 5740 5740 5739 5739 5739 5739 5739 5739 5739 5739 5740 5740 5740 5741 5741 5742 5742 5743 5744 5745 5746 5747 5748 5749 5750 5751 5751 5752 5754 5756 5757 5757 5758 5758 5760 5760 5760 5761 5762 5763 5764 5765 5767 5770 5771 5772 5774 5775 5777 5778 5779 5780 5781 5782 5783 5784 5785 5786 5786 5787 5787 5787
5745 5745 5744 5744 5744 5743 5743 5742 5742 5741 5741 5740 5739 5739 5738 5738 5738 5738 5738 5737 5737 5737 5737 5737 5738 5738 5738 5738 5738 5738 5738 5738 5738 5738 5738 5738 5738 5738 5739 5739 5739 5740 5740 5741 5742 5743 5744 5745 5746 5746 5747 5748 5750 5751 5753 5754 5754 5755 5756 5757 5758 5758 5758 5759 5761 5762 5763 5764 5766 5767 5769 5769 5771 5773 5774 5776 5777 5778 5778 5779 5781 5782 5783 5783 5783 5784 5785 5785
5744 5743 5743 5743 5742 5742 5742 5741 5741 5740 5740 5739 5738 5738 5738 5737 5737 5737 5737 5736 5736 5736 5735 5736 5736 5737 5737 5737 5737 5737 5737 5737 5737 5737 5737 5737 5737 5737 5737 5738 5738 5738 5739 5739 5740 5741 5742 5743 5743 5744 5745 5746 5747 5749 5750 5751 5752 5752 5754 5755 5756 5756 5757 5758 5759 5760 5762 5763 5764 5766 5767 5767 5769 5771 5772 5772 5774 5774 5776 5778 5779 5779 5780 5780 5781 5782 5783 5782
5742 5742 5742 5741 5741 5741 5740 5740 5740 5739 5739 5738 5737 5737 5737 5736 5736 5736 5735 5735 5735 5734 5734 5735 5736 5736 5736 5736 5736 5736 5736 5736 5736 5736 5736 5736 5736 5736 5736 5736 5737 5737 5737 5738 5738 5739 5740 5741 5742 5743 5743 5744 5745 5747 5748 5749 5750 5750 5752 5753 5754 5755 5756 5756 5758 5759 5761 5761 5762 5764 5764 5766 5767 5768 5769 5770 5771 5772 5774 5775 5776 5776 5777 5778 5779 5780 5780 5780
5740 5740 5740 5740 5740 5739 5739 5739 5739 5738 5738 5737 5736 5736 5736 5736 5735 5735 5734 5734 5734 5733 5733 5734 5734 5735 5735 5735 5734 5734 5734 5734 5735 5735 5735 5735 5735 5735 5735 5735 5736 5736 5736 5737 5737 5738 5739 5740 5740 5741 5741 5742 5744 5745 5746 5747 5748 5749 5750 5751 5752 5753 5754 5755 5756 5757 5758 5759 5760 5761 5761 5763 5765 5765 5766 5767 5769 5770 5772 5772 5773 5774 5774 5775 5776 5777 5778 5778
5739 5739 5739 5739 5738 5738 5738 5738 5737 5737 5736 5736 5735 5735 5735 5735 5734 5734 5734 5733 5733 5732 5732 5732 5733 5733 5733 5733 5733 5733 5733 5733 5734 5734 5734 5734 5734 5734 5734 5734 5734 5735 5735 5736 5737 5737 5738 5739 5739 5740 5740 5741 5743 5744 5745 5745 5746 5747 5748 5749 5750 5751 5752 5753 5754 5754 5755 5756 5756 5757 5758 5761 5763 5762 5763 5765 5767 5768 5769 5770 5770 5771 5772 5772 5773 5774 5774 5775
5737 5737 5737 5737 5737 5737 5737 5736 5736 5736 5735 5735 5734 5734 5733 5733 5733 5733 5733 5732 5732 5732 5731 5731 5731 5731 5731 5732 5732 5732 5732 5732 5733 5733 5733 5733 5733 5733 5733 5733 5734 5734 5735 5735 5736 5737 5737 5738 5738 5739 5740 5741 5742 5743 5743 5744 5744 5745 5746 5747 5748 5749 5750 5751 5751 5752 5753 5754 5755 5756 5757 5761 5762 5760 5761 5763 5764 5765 5766 5767 5767 5768 5769 5769 5770 5770 5771 5772
5736 5736 5736 5736 5735 5735 5735 5735 5734 5734 5734 5733 5733 5732 5732 5732 5732 5732 5731 5731 5731 5730 5730 5730 5730 5730 5729 5730 5730 5731 5731 5731 5732 5732 5732 5732 5732 5732 5733 5733 5733 5734 5734 5735 5735 5736 5736 5737 5738 5739 5739 5740 5740 5741 5742 5743 5744 5744 5745 5746 5747 5747 5748 5748 5749 5750 5751 5752 5753 5754 5755 5759 5760 5758 5758 5761 5761 5762 5763 5764 5765 5766 5766 5766 5767 5767 5768 5769
5734 5734 5734 5734 5734 5734 5733 5733 5733 5732 5732 5732 5731 5731 5731 5731 5730 5730 5730 5730 5729 5729 5729 5729 5729 5729 5728 5728 5728 5729 5730 5730 5730 5731 5731 5731 5731 5732 5732 5732 5733 5733 5733 5734 5734 5735 5736 5737 5737 5738 5738 5738 5739 5739 5740 5741 5742 5743 5744 5745 5745 5746 5746 5747 5747 5748 5749 5750 5751 5752 5754 5757 5756 5755 5756 5758 5759 5760 5761 5761 5762 5763 5764 5764 5764 5765 5765 5766
5732 5732 5732 5732 5732 5732 5732 5731 5731 5731 5731 5730 5730 5729 5729 5729 5729 5729 5728 5728 5728 5728 5728 5728 5728 5727 5727 5727 5727 5727 5728 5728 5729 5729 5730 5730 5730 5730 5731 5732 5732 5732 5732 5733 5733 5734 5736 5736 5737 5737 5737 5736 5737 5738 5739 5740 5741 5742 5743 5744 5744 5745 5745 5745 5745 5746 5747 5748 5749 5751 5753 5755 5754 5753 5754 5756 5757 5757 5758 5759 5760 5760 5761 5761 5761 5762 5762 5762
5731 5730 5730 5730 5730 5730 5730 5729 5729 5729 5729 5729 5728 5728 5727 5727 5727 5727 5727 5726 5726 5726 5726 5726 5726 5726 5725 5726 5726 5726 5726 5727 5727 5728 5728 5729 5729 5729 5730 5730 5731 5731 5731 5731 5732 5733 5735 5736 5736 5735 5734 5734 5735 5737 5738 5738 5739 5740 5741 5742 5743 5743 5744 5744 5744 5745 5746 5747 5748 5749 5751 5753 5752 5752 5752 5753 5754 5755 5755 5755 5756 5757 5758 5758 5758 5759 5759 5759
5729 5729 5729 5728 5728 5728 5728 5727 5727 5727 5727 5726 5726 5726 5725 5725 5725 5725 5725 5725 5725 5725 5725 5725 5725 5724 5724 5724 5725 5725 5725 5725 5726 5726 5727 5727 5728 5728 5728 5729 5729 5729 5729 5730 5731 5732 5733 5734 5733 5732 5732 5733 5734 5735 5736 5737 5737 5738 5739 5740 5741 5742 5742 5742 5742 5743 5744 5745 5746 5747 5749 5750 5750 5750 5750 5750 5751 5751 5752 5753 5753 5754 5754 5755 5756 5756 5756 5756
5727 5727 5727 5726 5726 5726 5725 5725 5725 5725 5724 5724 5724 5724 5723 5723 5723 5723 5723 5723 5723 5723 5723 5723 5723 5723 5723 5723 5723 5723 5723 5723 5724 5724 5725 5725 5726 5726 5726 5726 5727 5727 5727 5728 5729 5730 5731 5731 5730 5730 5731 5732 5732 5733 5734 5735 5735 5736 5737 5738 5739 5739 5740 5740 5740 5740 5741 5742 5743 5744 5746 5747 5748 5748 5748 5748 5748 5748 5749 5750 5751 5751 5751 5752 5753 5754 5753 5753
5725 5725 5725 5724 5724 5724 5723 5723 5723 5722 5722 5722 5722 5721 5721 5721 5721 5721 5721 5721 5721 5721 5721 5722 5721 5721 5721 5721 5721 5722 5721 5722 5722 5723 5723 5723 5724 5724 5724 5724 5725 5725 5726 5726 5727 5728 5729 5728 5728 5729 5729 5730 5730 5731 5732 5733 5733 5734 5734 5735 5736 5736 5736 5736 5736 5737 5738 5739 5740 5742 5743 5744 5745 5746 5746 5747 5746 5746 5746 5747 5748 5748 5749 5750 5750 5750 5751 5751
5723 5723 5723 5722 5722 5721 5721 5721 5720 5720 5720 5719 5719 5719 5719 5718 5718 5718 5718 5718 5719 5719 5719 5719 5719 5719 5719 5720 5720 5720 5720 5720 5721 5721 5721 5721 5722 5722 5722 5723 5723 5723 5723 5723 5725 5726 5726 5725 5726 5726 5727 5727 5728 5729 5730 5731 5731 5731 5732 5732 5732 5732 5731 5732 5733 5734 5734 5735 5737 5739 5740 5741 5742 5743 5744 5744 5744 5743 5743 5743 5744 5746 5747 5747 5747 5747 5748 5748
5721 5721 5721 5720 5720 5719 5719 5718 5718 5718 5717 5717 5717 5716 5716 5716 5716 5716 5716 5716 5716 5716 5717 5717 5717 5717 5718 5718 5718 5718 5718 5719 5719 5719 5719 5719 5720 5720 5720 5721 5721 5720 5720 5721 5723 5724 5723 5723 5723 5724 5724 5725 5725 5727 5728 5728 5729 5729 5729 5729 5729 5729 5729 5729 5730 5731 5732 5732 5734 5735 5736 5738 5740 5741 5741 5741 5741 5741 5740 5740 5741 5742 5743 5743 5743 5744 5744 5744
5719 5719 5719 5718 5717 5717 5716 5716 5715 5715 5715 5715 5715 5714 5714 5714 5713 5713 5713 5713 5714 5714 5714 5715 5715 5716 5716 5716 5716 5716 5717 5717 5717 5718 5718 5718 5718 5718 5719 5719 5719 5718 5718 5720 5721 5722 5721 5720 5720 5721 5721 5722 5723 5725 5725 5725 5726 5726 5726 5726 5726 5726 5727 5727 5728 5728 5729 5730 5730 5731 5732 5733 5736 5738 5738 5738 5738 5738 5737 5737 5738 5738 5738 5738 5738 5738 5739 5740
5717 5717 5716 5716 5715 5714 5714 5713 5713 5713 5713 5713 5713 5712 5712 5712 5711 5711 5711 5712 5712 5712 5712 5713 5713 5713 5714 5714 5715 5715 5715 5715 5716 5716 5716 5716 5717 5717 5717 5717 5717 5716 5717 5718 5719 5719 5719 5717 5718 5718 5719 5720 5721 5722 5722 5722 5722 5723 5723 5723 5723 5723 5724 5724 5725 5725 5725 5726 5727 5728 5728 5729 5732 5735 5735 5734 5734 5735 5735 5734 5733 5733 5733 5733 5733 5734 5735 5736
5714 5714 5714 5713 5713 5712 5712 5711 5711 5711 5711 5711 5711 5710 5710 5710 5710 5710 5710 5710 5710 5710 5710 5711 5711 5712 5712 5713 5713 5713 5713 5713 5714 5714 5714 5715 5715 5715 5715 5715 5715 5714 5714 5715 5716 5716 5716 5715 5715 5715 5716 5717 5718 5719 5718 5718 5719 5720 5720 5720 5720 5720 5721 5721 5721 5721 5721 5722 5723 5724 5725 5726 5727 5730 5731 5730 5731 5731 5731 5730 5729 5729 5729 5729 5730 5731 5733 5734
5712 5712 5711 5711 5711 5711 5710 5710 5709 5709 5709 5709 5709 5709 5709 5708 5708 5708 5708 5709 5708 5708 5709 5709 5710 5710 5711 5711 5711 5711 5712 5712 5712 5712 5712 5713 5713 5712 5712 5712 5713 5712 5712 5713 5713 5713 5714 5713 5713 5713 5714 5715 5715 5715 5715 5716 5717 5717 5717 5717 5718 5717 5717 5718 5718 5718 5718 5718 5720 5721 5722 5722 5723 5725 5726 5726 5727 5728 5727 5727 5727 5726 5725 5726 5728 5728 5729 5730
5710 5709 5709 5709 5709 5709 5708 5708 5708 5707 5707 5708 5708 5707 5707 5707 5707 5707 5707 5707 5707 5708 5708 5708 5708 5709 5709 5709 5710 5710 5710 5710 5710 5710 5710 5710 5710 5710 5710 5710 5710 5710 5710 5710 5711 5711 5711 5711 5711 5712 5712 5712 5712 5713 5713 5713 5713 5714 5714 5714 5715 5714 5714 5715 5715 5715 5715 5715 5718 5718 5718 5718 5718 5720 5721 5721 5724 5724 5724 5724 5724 5723 5723 5723 5724 5725 5725 5727
5707 5707 5707 5707 5707 5707 5707 5707 5706 5706 5706 5706 5706 5706 5706 5707 5706 5706 5706 5706 5706 5707 5707 5707 5708 5708 5708 5709 5709 5709 5709 5709 5709 5709 5709 5709 5709 5709 5709 5708 5708 5708 5708 5708 5708 5708 5708 5709 5709 5710 5711 5710 5710 5711 5711 5711 5711 5711 5712 5712 5712 5712 5712 5712 5712 5712 5712 5713 5714 5715 5715 5715 5714 5715 5715 5716 5720 5721 5720 5720 5720 5720 5720 5720 5721 5722 5723 5724
5705 5705 5705 5705 5705 5705 5705 5705 5705 5704 5705 5705 5705 5705 5705 5706 5706 5706 5706 5706 5706 5706 5706 5706 5707 5707 5707 5708 5708 5708 5708 5708 5708 5707 5707 5707 5707 5707 5707 5706 5706 5706 5705 5705 5705 5706 5706 5706 5707 5708 5708 5709 5709 5709 5709 5709 5709 5709 5709 5709 5709 5709 5709 5710 5710 5710 5710 5710 5711 5711 5712 5712 5712 5712 5712 5713 5715 5717 5717 5716 5717 5717 5718 5718 5719 5720 5721 5722
5704 5703 5703 5703 5704 5704 5704 5703 5703 5703 5703 5703 5704 5704 5704 5705 5705 5705 5705 5705 5705 5705 5705 5705 5706 5706 5706 5707 5707 5707 5706 5707 5707 5706 5706 5706 5706 5705 5705 5704 5704 5703 5703 5703 5702 5703 5703 5704 5704 5705 5706 5706 5707 5707 5707 5707 5707 5706 5707 5707 5707 5707 5707 5708 5708 5708 5708 5708 5708 5708 5709 5709 5710 5710 5710 5710 5712 5713 5713 5713 5714 5715 5716 5717 5717 5718 5719 5720
5702 5702 5702 5702 5702 5702 5702 5702 5702 5702 5702 5702 5702 5702 5703 5704 5704 5704 5704 5704 5704 5704 5704 5704 5704 5705 5705 5705 5705 5705 5705 5705 5705 5704 5704 5704 5704 5703 5702 5702 5702 5702 5701 5701 5701 5701 5701 5702 5702 5703 5703 5704 5705 5705 5705 5705 5704 5704 5704 5704 5705 5705 5705 5705 5706 5706 5706 5706 5705 5706 5706 5706 5707 5708 5708 5709 5709 5710 5710 5710 5712 5713 5714 5715 5715 5716 5717 5718
5700 5700 5700 5700 5700 5700 5700 5700 5700 5700 5700 5700 5701 5701 5701 5702 5702 5703 5703 5703 5703 5703 5703 5703 5703 5703 5703 5703 5703 5703 5703 5703 5703 5703 5702 5702 5701 5701 5700 5700 5699 5699 5699 5699 5699 5699 5699 5700 5700 5700 5701 5702 5703 5703 5702 5702 5702 5702 5702 5702 5702 5703 5703 5703 5703 5704 5704 5703 5703 5704 5704 5704 5705 5705 5706 5707 5707 5707 5708 5709 5710 5711 5712 5713 5713 5714 5714 5715
5698 5698 5698 5698 5698 5698 5698 5698 5698 5698 5698 5698 5699 5699 5700 5700 5700 5701 5701 5701 5702 5702 5702 5702 5701 5701 5701 5701 5701 5701 5701 5700 5700 5700 5699 5699 5699 5698 5698 5697 5697 5697 5697 5697 5697 5696 5696 5697 5698 5698 5698 5699 5700 5700 5700 5700 5700 5700 5700 5700 5700 5700 5701 5701 5701 5701 5701 5701 5701 5701 5702 5702 5702 5703 5704 5705 5706 5706 5706 5707 5708 5708 5709 5710 5711 5711 5712 5713
5695 5696 5696 5696 5696 5696 5696 5696 5696 5696 5696 5696 5696 5697 5697 5698 5698 5699 5699 5700 5700 5700 5700 5700 5699 5699 5699 5699 5698 5698 5698 5698 5697 5697 5697 5696 5696 5695 5695 5695 5694 5694 5694 5694 5694 5694 5693 5694 5695 5696 5696 5696 5697 5697 5697 5697 5697 5697 5697 5698 5698 5697 5698 5698 5698 5697 5697 5698 5698 5699 5699 5699 5700 5700 5701 5702 5703 5703 5704 5705 5705 5705 5706 5707 5708 5708 5709 5710
5693 5693 5694 5694 5694 5694 5694 5694 5694 5694 5694 5694 5694 5694 5695 5695 5696 5696 5697 5697 5697 5697 5697 5697 5697 5697 5697 5697 5696 5696 5696 5695 5694 5694 5694 5693 5692 5692 5692 5691 5691 5691 5691 5691 5691 5690 5690 5690 5692 5692 5693 5694 5694 5694 5694 5694 5694 5695 5695 5694 5694 5695 5695 5695 5694 5694 5694 5694 5695 5695 5696 5696 5697 5697 5698 5699 5699 5700 5700 5701 5702 5702 5703 5704 5704 5705 5706 5707
5690 5691 5691 5691 5691 5691 5691 5691 5691 5691 5692 5692 5692 5692 5692 5692 5693 5694 5694 5694 5694 5694 5694 5694 5694 5694 5694 5694 5694 5694 5693 5693 5692 5691 5691 5690 5689 5688 5688 5688 5688 5687 5687 5687 5687 5686 5686 5686 5687 5688 5689 5689 5690 5690 5691 5691 5691 5691 5692 5691 5691 5692 5692 5691 5691 5691 5691 5691 5691 5691 5692 5693 5693 5694 5694 5694 5695 5696 5697 5698 5699 5700 5700 5701 5701 5702 5702 5703
5687 5688 5688 5688 5688 5688 5688 5688 5689 5689 5689 5689 5689 5689 5689 5689 5690 5690 5690 5690 5691 5691 5691 5691 5692 5692 5692 5691 5691 5691 5690 5690 5689 5689 5688 5687 5686 5685 5684 5685 5685 5684 5684 5683 5683 5682 5682 5681 5682 5683 5684 5685 5685 5685 5686 5687 5687 5687 5688 5688 5688 5688 5688 5688 5687 5687 5688 5687 5687 5687 5687 5688 5689 5690 5691 5691 5691 5692 5694 5696 5696 5697 5697 5697 5698 5698 5698 5699
5684 5684 5685 5685 5685 5684 5685 5685 5686 5686 5686 5686 5686 5686 5686 5686 5687 5687 5687 5687 5687 5688 5688 5688 5688 5688 5688 5688 5688 5687 5687 5687 5686 5685 5684 5684 5683 5682 5681 5681 5681 5681 5681 5680 5679 5678 5678 5677 5677 5678 5679 5680 5681 5681 5681 5682 5682 5683 5683 5683 5684 5684 5684 5684 5684 5684 5684 5684 5683 5682 5683 5683 5684 5685 5686 5686 5687 5688 5690 5692 5693 5693 5693 5694 5694 5694 5695 5695
5680 5681 5681 5682 5681 5681 5681 5682 5682 5683 5683 5683 5683 5683 5682 5683 5683 5683 5683 5683 5683 5684 5684 5684 5684 5684 5684 5684 5684 5684 5683 5682 5682 5681 5680 5679 5679 5678 5677 5677 5676 5676 5677 5677 5676 5674 5673 5673 5672 5673 5674 5675 5676 5676 5677 5677 5678 5678 5679 5679 5679 5679 5679 5680 5680 5680 5680 5679 5678 5678 5678 5677 5678 5679 5680 5681 5682 5683 5685 5686 5688 5689 5689 5690 5690 5691 5691 5691
5676 5677 5678 5678 5678 5677 5677 5678 5679 5679 5679 5679 5679 5679 5679 5679 5679 5680 5680 5680 5679 5679 5680 5680 5680 5680 5680 5679 5679 5679 5678 5678 5677 5677 5676 5675 5674 5674 5673 5672 5672 5672 5672 5671 5671 5670 5669 5668 5668 5668 5668 5670 5670 5671 5671 5672 5673 5673 5674 5675 5675 5675 5675 5675 5675 5675 5675 5674 5674 5674 5673 5672 5673 5675 5676 5676 5676 5677 5678 5679 5681 5683 5684 5685 5686 5686 5687 5687
5673 5673 5673 5674 5674 5674 5673 5674 5675 5676 5676 5676 5676 5675 5675 5675 5675 5676 5676 5676 5675 5675 5675 5675 5675 5674 5674 5674 5673 5673 5673 5672 5672 5672 5672 5671 5670 5669 5668 5667 5667 5666 5666 5666 5665 5665 5665 5664 5663 5663 5662 5663 5664 5665 5665 5666 5667 5668 5668 5669 5670 5670 5671 5671 5670 5670 5669 5669 5670 5670 5668 5668 5669 5670 5671 5671 5671 5671 5671 5672 5674 5676 5678 5680 5680 5681 5682 5682
5669 5669 5669 5670 5670 5670 5669 5670 5671 5671 5671 5672 5672 5671 5671 5671 5671 5672 5672 5672 5671 5671 5671 5670 5669 5669 5669 5669 5668 5668 5668 5668 5667 5666 5666 5666 5665 5664 5663 5662 5661 5661 5660 5660 5660 5659 5659 5659 5658 5658 5657 5657 5658 5660 5661 5661 5661 5661 5662 5663 5664 5664 5665 5665 5665 5665 5664 5664 5664 5664 5663 5664 5664 5665 5666 5666 5666 5666 5665 5665 5667 5669 5671 5673 5674 5675 5676 5676
5665 5664 5665 5665 5666 5666 5665 5665 5666 5667 5667 5667 5667 5667 5667 5667 5667 5667 5667 5667 5666 5666 5666 5665 5665 5665 5664 5664 5663 5663 5663 5662 5662 5661 5660 5660 5659 5658 5658 5657 5656 5656 5655 5655 5654 5654 5654 5654 5653 5653 5652 5651 5652 5653 5654 5655 5655 5655 5655 5656 5657 5657 5658 5659 5658 5658 5658 5658 5658 5658 5658 5658 5659 5659 5660 5661 5660 5660 5659 5659 5660 5662 5663 5666 5667 5668 5670 5670
5661 5661 5660 5660 5661 5661 5661 5661 5661 5662 5662 5662 5662 5662 5663 5663 5662 5662 5662 5661 5661 5661 5661 5660 5660 5659 5659 5658 5658 5657 5657 5656 5656 5655 5655 5654 5653 5653 5653 5652 5651 5650 5650 5649 5649 5648 5648 5648 5648 5648 5648 5647 5647 5647 5647 5648 5648 5649 5650 5650 5650 5650 5651 5651 5651 5651 5652 5651 5650 5652 5652 5652 5653 5653 5653 5654 5654 5654 5654 5654 5655 5656 5657 5658 5660 5661 5662 5664
5657 5656 5656 5656 5655 5656 5656 5656 5657 5657 5657 5657 5658 5658 5658 5658 5658 5657 5656 5656 5656 5656 5655 5654 5654 5654 5653 5653 5652 5652 5651 5651 5650 5650 5649 5649 5648 5647 5647 5647 5646 5645 5645 5644 5643 5643 5643 5642 5643 5643 5642 5642 5642 5641 5641 5641 5642 5643 5643 5644 5645 5645 5644 5645 5645 5645 5645 5643 5645 5647 5646 5646 5647 5647 5646 5647 5647 5647 5648 5648 5649 5649 5650 5651 5653 5654 5655 5656
5652 5652 5652 5651 5651 5651 5651 5651 5651 5651 5652 5652 5652 5653 5653 5653 5653 5652 5651 5651 5650 5650 5650 5649 5649 5649 5648 5647 5647 5646 5645 5645 5644 5644 5643 5643 5642 5642 5642 5641 5641 5640 5639 5639 5638 5638 5637 5637 5637 5636 5636 5637 5636 5635 5635 5635 5635 5635 5636 5637 5638 5638 5639 5639 5639 5639 5639 5639 5640 5640 5638 5639 5641 5640 5640 5641 5641 5641 5641 5641 5642 5642 5643 5644 5645 5646 5648 5649
5648 5648 5648 5647 5646 5646 5646 5646 5646 5646 5646 5646 5646 5647 5647 5647 5647 5646 5646 5645 5645 5644 5644 5644 5643 5643 5642 5642 5641 5641 5640 5639 5639 5638 5638 5637 5637 5636 5636 5636 5635 5635 5634 5633 5632 5632 5631 5631 5631 5630 5630 5630 5630 5630 5630 5629 5628 5629 5630 5630 5630 5632 5633 5634 5634 5635 5634 5634 5636 5634 5631 5634 5635 5633 5633 5635 5635 5635 5635 5635 5635 5635 5636 5636 5637 5638 5639 5640
5643 5643 5643 5642 5642 5642 5642 5641 5641 5641 5641 5641 5640 5640 5641 5641 5641 5640 5639 5639 5639 5638 5638 5638 5637 5637 5637 5636 5635 5635 5634 5634 5633 5633 5632 5632 5631 5630 5630 5630 5630 5630 5630 5629 5627 5626 5625 5625 5625 5624 5623 5624 5625 5625 5624 5623 5622 5622 5622 5623 5624 5626 5627 5628 5629 5629 5628 5628 5629 5627 5626 5629 5630 5626 5626 5628 5628 5628 5628 5628 5628 5629 5629 5629 5629 5630 5631 5632
5639 5639 5639 5638 5637 5637 5637 5637 5637 5636 5636 5636 5636 5635 5635 5635 5635 5634 5633 5632 5633 5632 5632 5632 5632 5631 5631 5631 5630 5630 5629 5628 5627 5627 5626 5625 5625 5625 5624 5624 5624 5624 5624 5623 5622 5621 5620 5619 5619 5617 5616 5618 5619 5619 5619 5618 5615 5614 5617 5619 5620 5620 5620 5620 5620 5621 5621 5621 5621 5620 5622 5624 5623 5620 5620 5621 5621 5621 5621 5620 5621 5621 5621 5622 5622 5622 5623 5624